Sioux City, IA

1:47 AM CST on February 21, 2018 (GMT -0600)
Sioux Gateway

Weather History for KSUX - October, 2014

Change the Weather History Date:

Thursday, October 16, 2014

  Actual Average Record
Temperature  
Mean Temperature 60 °F 51 °F  
Max Temperature 77 °F 64 °F 88 °F (1910)
Min Temperature 42 °F 38 °F 22 °F (1976)
Degree Days  
Heating Degree Days 5 14  
Month to date heating degree days 194 188  
Since 1 July heating degree days 306 335  
Cooling Degree Days 0 0  
Month to date cooling degree days 4 8  
Year to date cooling degree days 862 869  
Growing Degree Days 10 (Base 50)    
Moisture  
Dew Point 40 °F    
Average Humidity 53    
Maximum Humidity 83    
Minimum Humidity 23    
Precipitation  
Precipitation 0.00 in 0.07 in 2.32 in (1968)
Month to date precipitation 0.60 1.30  
Year to date precipitation 39.02 24.80  
Snow  
Snow 0.00 in 0.00 in 1.50 in (2002)
Month to date snowfall 0.0 0.2  
Since 1 July snowfall 0.0 0.2  
Since 1 September snowfall 0.0 0.2  
Snow Depth 0.00 in    
Sea Level Pressure  
Sea Level Pressure 29.76 in    
Wind  
Wind Speed 11 mph (WNW)    
Max Wind Speed 23 mph    
Max Gust Speed 33 mph    
Visibility 10 miles    
Events      
T = Trace of Precipitation, MM = Missing Value Source: NWS Daily Summary

Daily Weather History Graph

Daily Weather History Graph

Search for Another Location

Airport or City:

Trip Planner

Search our weather history database for the weather conditions in past years. The results will help you decide how hot, cold, wet, or windy it might be!

Date:

Astronomy

Oct. 16, 2014 Rise Set
Actual Time 7:39 AM CDT 6:41 PM CDT
Civil Twilight 7:11 AM CDT 7:10 PM CDT
Nautical Twilight 6:38 AM CDT 7:42 PM CDT
Astronomical Twilight 6:06 AM CDT 8:15 PM CDT
Moon 12:43 AM CDT (10/16) 3:00 PM CDT (10/16)
Length of Visible Light 11h 58m
Length of Day
11h 02m
Last Quarter, 41% of the Moon is Illuminated
Oct 16
Last Quarter
Oct 23
New
Oct 30
First Quarter
Nov 6
Full
Nov 14
Last Quarter

Hourly Weather History & Observations

Time (CDT) Temp. Windchill Dew Point Humidity Pressure Visibility Wind Dir Wind Speed Gust Speed Precip Events Conditions
12:52 AM 51.8 °F - 39.2 °F 62% 29.83 in 10.0 mi SE 8.1 mph - N/A   Clear
1:52 AM 50.0 °F - 39.0 °F 66% 29.81 in 10.0 mi SSE 6.9 mph - N/A   Clear
2:52 AM 45.0 °F 40.6 °F 37.9 °F 76% 29.81 in 10.0 mi ESE 8.1 mph - N/A   Clear
3:52 AM 44.6 °F 41.4 °F 37.4 °F 76% 29.78 in 10.0 mi East 5.8 mph - N/A   Clear
4:52 AM 45.0 °F 40.1 °F 37.9 °F 76% 29.75 in 10.0 mi SE 9.2 mph - N/A   Clear
5:52 AM 48.0 °F - 39.0 °F 71% 29.75 in 10.0 mi SSE 8.1 mph - N/A   Clear
6:52 AM 46.9 °F - 39.0 °F 74% 29.75 in 10.0 mi SE 6.9 mph - N/A   Clear
7:52 AM 45.0 °F 40.1 °F 39.0 °F 80% 29.74 in 10.0 mi SE 9.2 mph - N/A   Clear
8:52 AM 51.1 °F - 42.1 °F 71% 29.76 in 10.0 mi Calm Calm - N/A   Clear
9:52 AM 59.0 °F - 44.1 °F 58% 29.76 in 10.0 mi SSW 8.1 mph - N/A   Clear
10:52 AM 64.9 °F - 45.0 °F 48% 29.74 in 10.0 mi West 9.2 mph - N/A   Clear
11:52 AM 70.0 °F - 45.0 °F 41% 29.73 in 10.0 mi NW 9.2 mph - N/A   Clear
12:52 PM 73.0 °F - 44.1 °F 35% 29.74 in 10.0 mi NW 17.3 mph 26.5 mph N/A   Clear
1:52 PM 75.0 °F - 46.0 °F 36% 29.71 in 10.0 mi NNW 17.3 mph 27.6 mph N/A   Clear
2:52 PM 73.0 °F - 39.9 °F 30% 29.73 in 10.0 mi NW 19.6 mph 27.6 mph N/A   Clear
3:52 PM 73.0 °F - 37.0 °F 27% 29.73 in 10.0 mi NW 16.1 mph 25.3 mph N/A   Clear
4:52 PM 73.0 °F - 33.1 °F 23% 29.73 in 10.0 mi NW 18.4 mph 27.6 mph N/A   Clear
5:52 PM 71.1 °F - 35.1 °F 27% 29.74 in 10.0 mi WNW 13.8 mph 21.9 mph 0.00 in   Clear
6:52 PM 64.9 °F - 36.0 °F 34% 29.76 in 10.0 mi WNW 6.9 mph - N/A   Clear
7:52 PM 62.1 °F - 36.0 °F 38% 29.77 in 10.0 mi WNW 6.9 mph - N/A   Clear
8:52 PM 59.0 °F - 37.0 °F 44% 29.78 in 10.0 mi WNW 8.1 mph - N/A   Clear
9:52 PM 57.9 °F - 37.9 °F 47% 29.79 in 10.0 mi NW 10.4 mph - N/A   Clear
10:52 PM 57.0 °F - 41.0 °F 55% 29.79 in 10.0 mi WNW 8.1 mph - N/A   Clear
11:52 PM 57.0 °F - 42.1 °F 57% 29.80 in 10.0 mi NW 13.8 mph 21.9 mph N/A   Clear